Location: Prairie View Elementary School
(39.8322°N, 99.5698°W)
Time: 06:01:54
(UTC+00:00)

Okean-O - Pass Details

Date: 08 December 2019
Orbit: 639 x 641 km, 98.2° (Epoch: 18 January)

Event Time Altitude Azimuth Distance (km) Brightness Sun altitude
Rises 00:05:10 0° 152° (SSE) 2,932 6.0 -9.8°
Reaches altitude 10° 00:07:25 10° 147° (SSE) 2,027 5.1 -10.2°
Maximum altitude 00:11:40 49° 73° (ENE) 825 2.8 -11.0°
Drops below altitude 10° 00:15:57 10° 358° (N) 2,041 5.0 -11.8°
Sets 00:18:13 0° 353° (N) 2,954 5.9 -12.2°
